CZ-6A DEB, 56257

Orbit data source: Space-Track

CZ-6A DEB, 56257 is space debris in SSO originally from a launch on Fri, 11 Nov 2022 UTC launched from the Taiyaun Space Center, China (TSC). Debris objects in space refer to the collection of defunct objects orbiting the Earth. Examples of debris include non-operational satellites, rocket bodies, and fragments generated from explosions, collisions, or faulty payload assembly.

Loading next visibility...
Identifier
56257, 2022-151ABZ
Orbit
SSO
Country
Flag of CNCN / PRC
Related business
Manufacturer
SAST
Mission
Spacecraft
Bus & Motor
Unknown
Mass
Unknown
Launch date (UTC)
2022-11-11 (4 years ago)
Launch vehicle
Unknown
Launch site
Taiyaun Space Center, China (TSC)
Object type
Payload
Rocket body
Debris
Shape & HBR
Unknown shape, 0.1 m
Radar Cross Section
Small (<0.1 m²)

Expand to show TLE details & history
Last TLE update: 13 hours ago

TLE from 13 hours ago
0 CZ-6A DEB
1 56257U 22151ABZ 26236.43360937  .00001369  00000-0  78770-3 0  9991
2 56257  98.8542 221.9513 0076231 187.5748 172.4277 14.09432566181926
Epoch: 2026-08-24T10:24Z
TLE epoch observation values (Epoch: 2026-08-24T10:24:23.849Z)
Latitude
0.00001°
Longitude
93.13655°
Altitude
918.933 km
Speed
7.364 km/s
True Right ascension
14h 47m 48s
True Declination
0° 00' 00"
Sunlit
Object was in daylight at epoch
Visualization orbit readout
Latitude
Unknown
Longitude
Unknown
Altitude
Unknown
Speed
Unknown
Apparent Right ascension
Unknown
Apparent Declination
Unknown
Sunlit
N/A
Visualization observer readout
Local Sidereal Time
15:06:51
Azimuth
Unknown
Elevation
Unknown
Doppler factor
Unknown
Orbital elements
Apogee altitude
913.659 km
Perigee altitude
803.328 km
Semi-major axis
7,236.631 km
Eccentricity
0.00762
Inclination
98.8542°
RAAN
221.9513°
Arg. of periapsis
187.5748°
True anomaly
172.54174°
Mean anomaly
172.4277°
Eccentric anomaly
172.48482°
Mean motion
3.52564 °/min
Orbital period
102.11 mins
BSTAR
0.0007877
Loading maneuver chart data...
Computing Atmospheric mass density...
Loading historical data...
Loading historical data...
Loading historical data...
Loading historical data...
Loading historical data...
Loading historical data...
Loading historical data...

Documentation

Showing up to 5 results
|